Location: Dillon
(41.1766°N, 107.0923°W)
Time: 17:44:08
(UTC+00:00)

SO-50 - Pass Details

Date: 10 July 2022
Orbit: 585 x 698 km, 64.6° (Epoch: 08 August)

Event Time Altitude Azimuth Distance (km) Brightness Sun altitude
Exits shadow 03:48:02 14° 143° (SE) 1,785 ? -10.7°
Maximum altitude 03:50:11 19° 110° (ESE) 1,559 ? -11.0°
Drops below altitude 10° 03:53:30 10° 65° (ENE) 2,099 ? -11.4°
Sets 03:56:26 0° 48° (NE) 3,038 ? -11.8°
